Flag for U.S.A. Weather past 2 weeks in Savannah, Georgia, U.S.A.

70 °F


Feels Like: 70 °F
Forecast: 67 / 76 °F
Wind: No wind

Location: Hunter U. S. Army Airfield

Current Time: Oct 10, 2015 at 12:19:32 AM

Latest Report: Oct 9, 2015 at 11:58 PM

Visibility: 10 mi

Pressure: 30.02 "Hg

Humidity: 100%

Dew point: 70 °F

Location of SavannahLocation

Historic Weather in Savannah — Graph


Savannah temperature yesterday

Maximum temperature yesterday: 81 °F (at 10:58 AM)
Minimum temperature yesterday: 66 °F (at 4:58 AM)
Average temperature yesterday: 73 °F

Past Weeks' High & Low Weather Summary

High85 °F (Sep 30, 3:58 PM)100% (Sep 24, 11:01 PM)30.13 "Hg (Sep 24, 11:01 PM)
Low60 °F (Oct 8, 2:58 AM)50% (Oct 7, 1:58 PM)29.53 "Hg (Oct 3, 4:58 AM)
Average71 °F94%29.86 "Hg
* Reported Sep 24 11:01 PM — Oct 9 10:58 PM, Savannah, Weather by CustomWeather, © 2015

Note: Actual official high and low records may vary slightly from our data, if they occured in-between our weather recording intervals... More about our weather records


Savannah weather history for previous 24 hours

Time TempWeatherWind HumidityBarometerVisibility
10:58 PM
Fri, Oct 9
71 °FClear.No wind100%30.02 "Hg10 mi
9:58 PM70 °FClear.No wind100%30.02 "Hg10 mi
8:58 PM72 °FClear.2 mph100%30.01 "Hg10 mi
7:58 PM74 °FScattered clouds.No wind96%30.01 "Hg10 mi
6:58 PM75 °FScattered clouds.3 mph92%30.01 "Hg10 mi
5:58 PM77 °FPassing clouds.3 mph86%30.02 "Hg10 mi
4:58 PM79 °FScattered clouds.5 mph82%30.03 "Hg10 mi
3:58 PM81 °FSunny.8 mph76%30.03 "Hg10 mi
2:58 PM78 °FSunny.6 mph92%30.04 "Hg10 mi
1:58 PM78 °FSunny.3 mph87%30.07 "Hg10 mi
12:58 PM79 °FPassing clouds.3 mph87%30.10 "Hg10 mi
11:58 AM79 °FLight rain. Partly sunny.2 mph81%30.11 "Hg10 mi
10:58 AM81 °FSunny.3 mph80%30.13 "Hg10 mi
9:58 AM77 °FSunny.2 mph91%30.13 "Hg10 mi
8:58 AM72 °FSunny.2 mph100%30.13 "Hg10 mi
7:58 AM67 °FClear.No wind100%30.10 "Hg10 mi
6:58 AM68 °FClear.No wind100%30.09 "Hg10 mi
5:58 AM67 °FClear.No wind100%30.08 "Hg10 mi
5:03 AM66 °FClear.No wind100%30.06 "Hg10 mi
4:58 AM66 °FClear.No wind100%30.07 "Hg9 mi
4:03 AM68 °FClear.No wind100%30.06 "Hg7 mi
2:58 AM68 °FClear.No wind99%30.07 "Hg10 mi
2:03 AM68 °FClear.No wind100%30.07 "Hg7 mi
1:03 AM70 °FFog.No wind100%30.08 "Hg2 mi
12:58 AM70 °FFog.No wind100%30.10 "Hg5 mi
Weather by CustomWeather, © 2015

See weather overviewHow to use our weather pages